Weather in Korotkovo

Russia / Zabaykalsky Krai     50°26′37″N   108°58′05″E
temp.,
°C
wind,
m/s
gust,
m/s
humid.,
%
clouds,
%
prec.,
mm/h
press.,
hPa
HPBL,
m
14 august, sun
sun1400:00+13sse0069100 0.0 100610
03:00+13s0176100 0.0 100610
06:00+10nw01935 0.0 100610
09:00+15wsw01696 0.0 1006266
12:00+22nne134337 0.0 10041510
15:00+24nnw333455 0.0 10022552
18:00+23n323527 0.0 10022293
21:00+17nnw2263100 0.0 100537
15 august, mon
mon1500:00+13wnw117594 0.0 100711
03:00+11sw0084100 0.0 100810
06:00+10sw119218 0.0 100810
09:00+15sw117473 0.0 1009203
12:00+20ssw335814 0.1 1008876
15:00+23sw234316 0.6 10061698
18:00+22ssw134689 0.0 10051284
21:00+17sse11660 0.0 100512
16 august, tue
tue1600:00+13ese11800 0.0 100512
03:00+11e11860 0.0 100512
06:00+10ese11920 0.0 100415
09:00+16se116912 0.0 1004212
12:00+23nnw115089 0.0 10021085
15:00+21nnw4461100 0.2 1001945
18:00+19nnw45645 0.1 1001711
21:00+14nnw22880 0.4 100121
17 august, wed
wed1700:00+14nw2488100 0.0 1004128
03:00+11n2292100 0.1 100440
06:00+11nnw2387100 0.0 100698
09:00+13n137199 0.0 1006363
12:00+18n23376 0.0 10051525
15:00+21nnw33325 0.0 10042251
18:00+21nw343243 0.0 10042470
21:00+13n34615 0.0 100655
18 august, thu
thu1800:00+9nne2267100 0.0 100829
03:00+9nne2263100 0.0 100739
06:00+7nne227199 0.0 100722
09:00+11ene1257100 0.0 1005248
12:00+17ese234389 0.1 10031102
15:00+20nw024761 0.6 10021577
18:00+18n226124 1.2 1001486
21:00+12nnw228119 2.1 100315